TimeEDT,TemperatureF,Dew PointF,Humidity,Sea Level PressureIn,VisibilityMPH,Wind Direction,Wind SpeedMPH,Gust SpeedMPH,PrecipitationIn,Events,Conditions,WindDirDegrees,DateUTC
12:51 AM,71.1,61.0,70,29.95,10.0,SSE,5.8,-,N/A,,Mostly Cloudy,150,2013-07-28 04:51:00
1:51 AM,71.1,61.0,70,29.95,10.0,SSE,5.8,-,N/A,,Mostly Cloudy,150,2013-07-28 05:51:00
2:51 AM,70.0,60.1,71,29.95,10.0,SSE,6.9,-,N/A,,Mostly Cloudy,160,2013-07-28 06:51:00
3:51 AM,70.0,61.0,73,29.95,10.0,SSE,3.5,-,N/A,,Mostly Cloudy,160,2013-07-28 07:51:00
4:51 AM,70.0,61.0,73,29.94,10.0,South,6.9,-,N/A,,Overcast,170,2013-07-28 08:51:00
5:51 AM,70.0,60.1,71,29.95,10.0,South,4.6,-,N/A,,Overcast,180,2013-07-28 09:51:00
6:51 AM,69.1,61.0,75,29.96,10.0,South,5.8,-,N/A,,Overcast,180,2013-07-28 10:51:00
7:51 AM,68.0,62.1,81,29.98,9.0,South,8.1,-,0.00,Rain,Light Rain,180,2013-07-28 11:51:00
8:51 AM,66.9,64.0,90,29.98,5.0,South,8.1,-,0.03,Rain,Light Rain,170,2013-07-28 12:51:00
9:36 AM,68.0,64.4,88,29.97,6.0,SSE,9.2,-,0.02,Rain,Light Rain,160,2013-07-28 13:36:00
9:51 AM,68.0,64.0,87,29.96,5.0,SSE,6.9,-,0.03,Rain,Light Rain,160,2013-07-28 13:51:00
10:51 AM,69.1,64.9,87,29.96,9.0,SSE,9.2,-,0.01,,Light Drizzle,160,2013-07-28 14:51:00
11:51 AM,72.0,64.9,78,29.95,10.0,SSE,10.4,-,0.00,,Mostly Cloudy,150,2013-07-28 15:51:00
12:51 PM,71.1,64.9,81,29.96,9.0,South,9.2,17.3,0.01,Rain,Light Rain,180,2013-07-28 16:51:00
1:18 PM,69.8,64.4,83,29.96,10.0,SSE,9.2,25.3,0.00,Rain,Light Rain,150,2013-07-28 17:18:00
1:51 PM,70.0,64.0,81,29.96,10.0,South,12.7,25.3,0.00,,Overcast,170,2013-07-28 17:51:00
2:12 PM,69.8,62.6,78,29.96,10.0,South,8.1,18.4,N/A,,Overcast,170,2013-07-28 18:12:00
2:35 PM,69.8,64.4,83,29.96,5.0,South,8.1,-,0.00,Rain,Light Rain,170,2013-07-28 18:35:00
2:51 PM,69.1,64.9,87,29.95,10.0,South,4.6,-,0.01,,Overcast,170,2013-07-28 18:51:00
3:51 PM,70.0,64.9,84,29.94,10.0,South,5.8,-,0.00,,Overcast,170,2013-07-28 19:51:00
4:51 PM,73.0,66.0,79,29.93,10.0,South,4.6,-,N/A,,Overcast,170,2013-07-28 20:51:00
5:51 PM,72.0,66.9,84,29.94,10.0,SSW,4.6,-,N/A,,Overcast,210,2013-07-28 21:51:00
6:13 PM,71.6,66.2,83,29.94,10.0,SSE,3.5,-,N/A,Thunderstorm,Thunderstorm,160,2013-07-28 22:13:00
6:33 PM,71.6,68.0,88,29.94,1.5,South,3.5,-,0.06,Rain-Thunderstorm,Heavy Thunderstorms and Rain,190,2013-07-28 22:33:00
6:38 PM,71.6,68.0,88,29.95,1.5,South,4.6,-,0.13,Rain,Heavy Rain,190,2013-07-28 22:38:00
6:51 PM,71.1,68.0,90,29.94,0.8,South,9.2,-,0.33,Rain,Heavy Rain,170,2013-07-28 22:51:00
6:57 PM,71.6,68.0,88,29.95,3.0,South,8.1,-,0.01,Rain,Light Rain,180,2013-07-28 22:57:00
7:51 PM,71.1,69.1,93,29.94,5.0,South,5.8,-,0.03,Rain,Light Rain,180,2013-07-28 23:51:00
8:51 PM,71.1,68.0,90,29.95,5.0,South,6.9,-,0.01,,Overcast,190,2013-07-29 00:51:00
9:30 PM,71.6,66.2,83,29.95,9.0,SSE,5.8,-,N/A,,Overcast,160,2013-07-29 01:30:00
9:51 PM,70.0,66.9,90,29.95,9.0,South,6.9,-,N/A,,Overcast,170,2013-07-29 01:51:00
10:51 PM,71.1,66.0,84,29.96,10.0,South,6.9,-,N/A,,Overcast,180,2013-07-29 02:51:00
11:51 PM,71.1,66.0,84,29.96,10.0,South,6.9,-,N/A,,Overcast,170,2013-07-29 03:51:00